sat.trackr.live / text

‹ back to catalog

HINODE (SOLAR-B)

NORAD 29479 · 2006-041A

PAYLOAD ACTIVE UNKNOWN

§ Identity

Operator
Country
JPN
Launch date
2006-09-22
Launch site
KSCUT
Launch vehicle
Mass (kg)
RCS (m²)
5.74

Purposes: science

External: N2YO · Heavens-Above · Gunter

§ Orbital elements

Epoch: 2026-05-25T00:29:12.695712Z

Period
98.05 min
Inclination
98.0554°
Eccentricity
0.0017522
Mean motion
14.68583216 rev/d
Perigee alt
653.3 km
Apogee alt
677.9 km
Semi-major
7,043.7 km
B*
1.1081e-4
RAAN
161.5144°
Arg perigee
6.7318°
Mean anomaly
353.4119°
Rev number
5,147

§ Raw data

HINODE (SOLAR-B)1 29479U 06041A   26145.02028583  .00000596  00000+0  11081-3 0  99912 29479  98.0554 161.5144 0017522   6.7318 353.4119 14.68583216 51475

JSON: /api/v1/satellites/29479 · /tle

For live sub-satellite position, see the globe view (requires WebGL).

§ Visibility from observer

Set your observer location to see the next 7 days of passes ≥ 10°. The values pass through the URL so the page stays shareable.

No JS? Fill the form by hand. The geolocation button needs JavaScript.

§ Radio — SatNOGS DB

ModeDescriptionDownlinkUplink
FM S-band telemetry 2.256 GHz

1 transmitter · refreshed weekly from db.satnogs.org